AirNav   Everest Fuels
 
 1114 users online  

55G Arnold Field Airport
Croswell, Michigan, USA

GOING TO CROSWELL?


FAA INFORMATION EFFECTIVE 31 DECEMBER 2020

Location

FAA Identifier: 55G
Lat/Long: 43-17-52.0800N 082-36-28.3100W
43-17.868000N 082-36.471833W
43.2978000,-82.6078639
(estimated)
Elevation: 784 ft. / 239.0 m (surveyed)
Variation: 07W (1985)
From city: 2 miles NE of CROSWELL, MI
Time zone: UTC -5 (UTC -4 during Daylight Saving Time)
Zip code: 48422

Airport Operations

Airport use: Open to the public
Activation date: 05/1968
Control tower: no
ARTCC: CLEVELAND CENTER
FSS: LANSING FLIGHT SERVICE STATION
NOTAMs facility: LAN (NOTAM-D service available)
Attendance: UNATNDD
Wind indicator: yes
Segmented circle: no

Airport Communications

CTAF/UNICOM: 122.8

Airport Services

Parking: tiedowns
Bottled oxygen: NONE
Bulk oxygen: NONE

Runway Information

Runway 18/36

Dimensions: 2570 x 140 ft. / 783 x 43 m
Surface: turf, in good condition
Runway edge markings: RWY AND DSPLCD THLD MARKED WITH 3' YELLOW CONES.
RUNWAY 18  RUNWAY 36
Latitude: 43-18.080000N43-17.657500N
Longitude: 082-36.486667W082-36.457000W
Elevation: 784.0 ft.780.0 ft.
Traffic pattern: leftleft
Runway heading: 184 magnetic, 177 true004 magnetic, 357 true
Displaced threshold: 600 ft.570 ft.
Runway end identifier lights: nono
Obstructions: 76 ft. trees, 1250 ft. from runway, 16:1 slope to clear
APCH RATIO 24:1 AT DSPLCD THLD.
29 ft. pline, lighted, 11 ft. from runway, 97 ft. left of centerline
APCH RATIO AT DSPLCD THLD 20:1; DSPLCD THLD 5 FT ABOVE END OF RY.

Airport Ownership and Management from official FAA records

Ownership: Privately-owned
Owner: KENNETH LANDSBURG
4343 CROSWELL RD
CROSWELL, MI 48422
Phone 810-679-2487
Manager: BART PERRY
4343 CROSWELL ROAD
CROSWELL, MI 48422
Phone (810) 304-1018

Airport Operational Statistics

Aircraft based on the field: 6
Single engine airplanes: 4
Ultralights: 2
    
Aircraft operations: 200/year *
50% transient general aviation
50% local general aviation
* for 12-month period ending 31 December 2019

Additional Remarks

ARPT CLSD NOV-MAR. WINTER OPNS SKIS ONLY.
FOR CD CTC CLEVELAND ARTCC AT 440-774-0224, IF UNA CTC 440-774-0490.
BIRDS AND DEER INVOF RWY.

Instrument Procedures

There are no published instrument procedures at 55G.

Some nearby airports with instrument procedures:

77G - Marlette Township Airport (21 nm W)
KPHN - St Clair County International Airport (23 nm S)
D95 - Dupont-Lapeer Airport (32 nm SW)
KBAX - Huron County Memorial Airport (33 nm NW)
D98 - Romeo State Airport (34 nm SW)
 
Loc | Ops | Rwys | IFR | FBO | Links
Com | Nav | Svcs | Stats | Notes
Area around 55G (Arnold Field Airport)
 
Road maps at: MapQuest Bing Google
 
Aerial photo
No photo
 
Sectional chart

 
Airport distance calculator
Flying to Arnold Field Airport? Find the distance to fly.

From to 55G

Sunrise and sunset
Times for 23-Jan-2021
 Local
(UTC-5)
 Zulu
(UTC)
Morning civil twilight07:2512:25
Sunrise07:5612:56
Sunset17:2922:29
Evening civil twilight18:0023:00

Current date and time
Zulu (UTC)  23-Jan-2021 19:01:54
Local (UTC-5)  23-Jan-2021 14:01:54
 
METAR
CYZR 
22nm SE 
231800Z AUTO 31008KT 9SM OVC030 M05/M13 A3033 RMK SLP287
KPHN 
23nm S 
231855Z AUTO 28003KT 10SM SCT034 M05/M12 A3034 RMK AO2
KD95 
32nm SW 
231855Z AUTO 26008KT 230V300 10SM BKN031 M04/M11 A3033 RMK AO2 T10421112
KBAX 
33nm NW 
231855Z AUTO 26008KT 10SM OVC027 M06/M11 A3032 RMK AO2 T10561110
KCFS 
38nm W 
231855Z AUTO 25007KT 10SM OVC029 M04/M10 A3033 RMK AO2 T10421105
KP58 
44nm N 
231855Z AUTO 26005KT M04/M12 A3031 RMK AO1 SLP278 T10441117
TAF
CYZR 
22nm SE 
231338Z 2314/2402 32012G22KT P6SM BKN030 TEMPO 2314/2318 P6SM -SHSN FM231800 31008KT P6SM FEW025 RMK FCST BASED ON AUTO OBS. NXT FCST BY 232000Z
NOTAMs
Click for the latest NOTAMs
NOTAMs are issued by the DoD/FAA and will open in a separate window not controlled by AirNav.

 

 
 

Would you like to see your business listed on this page?

 If your business provides an interesting product or service to pilots, flight crews, aircraft, or users of the Arnold Field Airport, you should consider listing it here.  To start the listing process, click on the button below
 
Add a business
 

Other Pages about Arnold Field Airport

Page from the Michigan Airport Directory (PDF)
 
Update a link
 
Copyright © AirNav, LLC. All rights reserved. Privacy Policy  Contact